Location: Br�znic
(45.9167°N, 22.6500°E)
Time: 20:45:22
(UTC+00:00)

Meteor 2-20 - Pass Details

Date: 03 March 2021
Orbit: 940 x 958 km, 82.5° (Epoch: 13 April)

Event Time Altitude Azimuth Distance (km) Brightness Sun altitude
Rises 18:44:42 0° 351° (N) 3,622 7.8 -25.9°
Reaches altitude 10° 18:47:12 10° 352° (N) 2,676 7.1 -26.3°
Maximum altitude 18:53:20 84° 80° (E) 960 4.3 -27.3°
Enters shadow 18:54:07 70° 154° (SSE) 1,010 4.3 -27.4°
